Flag Weather past 2 weeks in Bremerhaven, Bremen, Germany

Now
50 °F

Fog.


Feels Like: 47 °F
Forecast: 50 / 58 °F
Wind: 8 mph from South

Location: Nordholz

Current Time: Oct 31, 2014 at 12:12:20 AM

Latest Report: Oct 30, 2014 at 11:50 PM


Visibility: 3 mi

Pressure: 30.18 "Hg

Humidity: 94%

Dew point: 48 °F

Location of BremerhavenLocation

Historic Weather in Bremerhaven — Graph

°F

Bremerhaven temperature yesterday

Maximum temperature yesterday: 52 °F (at 1:20 PM)
Minimum temperature yesterday: 39 °F (at 7:20 AM)
Average temperature yesterday: 45 °F

Past Weeks' High & Low Weather Summary

 TemperatureHumidityPressure
High70 °F (Oct 19, 1:20 PM)100% (Oct 15, 11:20 PM)30.24 "Hg (Oct 15, 11:20 PM)
Low39 °F (Oct 30, 7:20 AM)67% (Oct 23, 3:20 AM)29.33 "Hg (Oct 21, 5:20 PM)
Average53 °F88%29.95 "Hg
* Reported Oct 15 11:20 PM — Oct 30 10:20 PM, Bremerhaven, Weather by CustomWeather, © 2014

Note: Actual official high and low records may vary slightly from our data, if they occured in-between our weather recording intervals... More about our weather records

Advertising

Bremerhaven weather history for previous 24 hours

 ConditionsComfort  
Time TempWeatherWind HumidityBarometerVisibility
10:20 PM
Oct 30
50 °FFog.8 mph94%30.21 "Hg3 mi
9:20 PM50 °FFog.8 mph94%30.21 "Hg3 mi
8:20 PM50 °FFog.7 mph94%30.21 "Hg2 mi
7:20 PM48 °FFog.8 mph94%30.21 "Hg3 mi
6:20 PM48 °FLight rain. Fog.6 mph94%30.24 "Hg2 mi
5:20 PM48 °FDrizzle. Fog.7 mph94%30.21 "Hg2 mi
4:20 PM50 °FFog.8 mph88%30.21 "Hg2 mi
3:20 PM50 °FFog.9 mph82%30.21 "Hg3 mi
2:20 PM52 °FBroken clouds.9 mph82%30.21 "Hg5 mi
1:20 PM52 °FBroken clouds.8 mph82%30.24 "HgN/A
12:20 PM50 °FPartly sunny.5 mph82%30.24 "HgN/A
11:20 AM48 °FPartly sunny.6 mph82%30.24 "HgN/A
10:20 AM45 °FFog.5 mph93%30.24 "Hg3 mi
9:20 AM43 °FFog.5 mph100%30.24 "Hg2 mi
8:20 AM39 °FFog.5 mph100%30.24 "Hg0 mi
7:20 AM39 °FFog.5 mph100%30.21 "Hg0 mi
6:20 AM41 °FFog.3 mph93%30.21 "Hg0 mi
5:56 AM41 °FFog.3 mph100%30.21 "Hg0 mi
5:47 AM41 °FFog.3 mph100%30.21 "Hg2 mi
5:20 AM41 °FFog.3 mph93%30.21 "Hg3 mi
4:20 AM43 °FFog.5 mph93%30.18 "HgN/A
3:20 AM43 °FFog.3 mph93%30.18 "HgN/A
2:20 AM43 °FFog.5 mph93%30.18 "HgN/A
1:20 AM41 °FFog.5 mph100%30.18 "HgN/A
12:20 AM41 °FFog.3 mph100%30.15 "HgN/A
Weather by CustomWeather, © 2014

See weather overviewHow to use our weather pages